| time (UTC) | temp F | wind direction | speed MPH | gust MPH | rain 1hr in | rain 24hr in | rain mn in | humidity % | barometer mb |
| 20260905135542 | 93 | 215 | 1.0 | 5.0 | 0.00 | 0.00 | 0.00 | 100 | 1012.7 |
| 20260905135353 | 93 | 215 | 1.0 | 5.0 | 0.00 | 0.00 | 0.00 | 100 | 1012.7 |
| 20260905134853 | 92 | 275 | 4.0 | 4.0 | 0.00 | 0.00 | 0.00 | 100 | 1012.7 |
| 20260905134544 | 92 | 300 | 0.0 | 5.0 | 0.00 | 0.00 | 0.00 | 100 | 1012.7 |
| 20260905134353 | 92 | 300 | 0.0 | 5.0 | 0.00 | 0.00 | 0.00 | 100 | 1012.7 |
| 20260905134110 | 92 | 316 | 3.0 | 5.0 | 0.00 | 0.00 | 0.00 | 100 | 1012.7 |
| 20260905133853 | 92 | 316 | 3.0 | 5.0 | 0.00 | 0.00 | 0.00 | 100 | 1012.7 |
| 20260905133353 | 92 | 230 | 1.0 | 7.0 | 0.00 | 0.00 | 0.00 | 100 | 1012.8 |
| 20260905133245 | 92 | 227 | 0.0 | 4.0 | 0.00 | 0.00 | 0.00 | 100 | 1012.8 |
| 20260905132853 | 92 | 227 | 0.0 | 4.0 | 0.00 | 0.00 | 0.00 | 100 | 1012.8 |
| 20260905132353 | 91 | 206 | 1.0 | 4.0 | 0.00 | 0.00 | 0.00 | 100 | 1012.8 |
| 20260905131853 | 91 | 132 | 0.0 | 5.0 | 0.00 | 0.00 | 0.00 | 100 | 1012.9 |
| 20260905131353 | 90 | 109 | 1.0 | 6.0 | 0.00 | 0.00 | 0.00 | 100 | 1012.9 |
| 20260905130853 | 90 | 275 | 0.0 | 4.0 | 0.00 | 0.00 | 0.00 | 100 | 1012.8 |
| 20260905130714 | 88 | 184 | 0.0 | 0.0 | 0.00 | 0.00 | 0.00 | 100 | 1012.8 |
| 20260905130711 | 93 | 270 | 0.0 | 5.0 | 0.00 | 0.00 | 0.00 | 100 | 1010.6 |
| 20260905130620 | 90 | 226 | 4.0 | 5.0 | 0.00 | 0.00 | 0.00 | 100 | 1012.8 |
| 20260905130353 | 90 | 226 | 4.0 | 5.0 | 0.00 | 0.00 | 0.00 | 100 | 1012.8 |
| 20260905130112 | 90 | 213 | 0.0 | 4.0 | 0.00 | 0.00 | 0.00 | 100 | 1012.7 |
| 20260905125853 | 90 | 213 | 0.0 | 4.0 | 0.00 | 0.00 | 0.00 | 100 | 1012.7 |
| 20260905125353 | 89 | 246 | 0.0 | 4.0 | 0.00 | 0.00 | 0.00 | 100 | 1012.7 |
| 20260905124853 | 89 | 234 | 0.0 | 0.0 | 0.00 | 0.00 | 0.00 | 100 | 1012.6 |
| 20260905124354 | 89 | 234 | 0.0 | 4.0 | 0.00 | 0.00 | 0.00 | 100 | 1012.7 |
| 20260905124021 | 88 | 184 | 0.0 | 0.0 | 0.00 | 0.00 | 0.00 | 100 | 1012.8 |
| 20260905123854 | 88 | 184 | 0.0 | 0.0 | 0.00 | 0.00 | 0.00 | 100 | 1012.8 |
| 20260905123354 | 88 | 184 | 0.0 | 4.0 | 0.00 | 0.00 | 0.00 | 100 | 1012.7 |
| 20260905122853 | 87 | 216 | 2.0 | 5.0 | 0.00 | 0.00 | 0.00 | 100 | 1012.1 |
| 20260905122354 | 87 | 232 | 3.0 | 4.0 | 0.00 | 0.00 | 0.00 | 100 | 1012.6 |
| 20260905121854 | 87 | 233 | 1.0 | 4.0 | 0.00 | 0.00 | 0.00 | 100 | 1012.7 |
| 20260905121539 | 87 | 225 | 0.0 | 4.0 | 0.00 | 0.00 | 0.00 | 100 | 1012.8 |
| 20260905121354 | 87 | 225 | 0.0 | 4.0 | 0.00 | 0.00 | 0.00 | 100 | 1012.8 |
| 20260905120854 | 87 | 213 | 0.0 | 1.0 | 0.00 | 0.00 | 0.00 | 100 | 1012.6 |
| 20260905120552 | 87 | 201 | 0.0 | 3.0 | 0.00 | 0.00 | 0.00 | 100 | 1012.5 |
| 20260905120354 | 87 | 201 | 0.0 | 3.0 | 0.00 | 0.00 | 0.00 | 100 | 1012.5 |
| 20260905115854 | 86 | 230 | 0.0 | 1.0 | 0.00 | 0.00 | 0.00 | 100 | 1012.5 |
| 20260905115354 | 86 | 143 | 0.0 | 0.0 | 0.00 | 0.00 | 0.00 | 100 | 1012.5 |
| 20260905114854 | 86 | 143 | 0.0 | 0.0 | 0.00 | 0.00 | 0.00 | 100 | 1012.5 |
| 20260905114620 | 86 | 143 | 0.0 | 0.0 | 0.00 | 0.00 | 0.00 | 100 | 1012.6 |
| 20260905114354 | 86 | 143 | 0.0 | 0.0 | 0.00 | 0.00 | 0.00 | 100 | 1012.6 |
| 20260905114113 | 86 | 143 | 0.0 | 0.0 | 0.00 | 0.00 | 0.00 | 100 | 1012.5 |
| 20260905113854 | 86 | 143 | 0.0 | 0.0 | 0.00 | 0.00 | 0.00 | 100 | 1012.5 |
| 20260905113534 | 86 | 143 | 0.0 | 0.0 | 0.00 | 0.00 | 0.00 | 100 | 1012.4 |
| 20260905113354 | 86 | 143 | 0.0 | 0.0 | 0.00 | 0.00 | 0.00 | 100 | 1012.4 |
| 20260905112854 | 86 | 143 | 0.0 | 0.0 | 0.00 | 0.00 | 0.00 | 100 | 1012.4 |
| 20260905112354 | 86 | 143 | 0.0 | 0.0 | 0.00 | 0.00 | 0.00 | 100 | 1012.4 |
| 20260905111854 | 86 | 143 | 0.0 | 0.0 | 0.00 | 0.00 | 0.00 | 100 | 1012.5 |
| 20260905111354 | 86 | 143 | 0.0 | 0.0 | 0.00 | 0.00 | 0.00 | 100 | 1012.5 |
| 20260905111114 | 86 | 143 | 0.0 | 0.0 | 0.00 | 0.00 | 0.00 | 100 | 1012.4 |
| 20260905110854 | 86 | 143 | 0.0 | 0.0 | 0.00 | 0.00 | 0.00 | 100 | 1012.4 |
| 20260905110354 | 86 | 143 | 0.0 | 0.0 | 0.00 | 0.00 | 0.00 | 100 | 1012.4 |
| 20260905105854 | 86 | 143 | 0.0 | 0.0 | 0.00 | 0.00 | 0.00 | 100 | 1012.3 |
| 20260905105354 | 86 | 143 | 0.0 | 0.0 | 0.00 | 0.00 | 0.00 | 100 | 1012.2 |
| 20260905105141 | 86 | 143 | 0.0 | 0.0 | 0.00 | 0.00 | 0.00 | 100 | 1012.2 |
| 20260905104854 | 86 | 143 | 0.0 | 0.0 | 0.00 | 0.00 | 0.00 | 100 | 1012.2 |
| 20260905104621 | 86 | 143 | 0.0 | 0.0 | 0.00 | 0.00 | 0.00 | 100 | 1012.3 |
| 20260905104354 | 86 | 143 | 0.0 | 0.0 | 0.00 | 0.00 | 0.00 | 100 | 1012.3 |
| 20260905103854 | 86 | 143 | 0.0 | 0.0 | 0.00 | 0.00 | 0.00 | 100 | 1012.2 |
| 20260905103354 | 86 | 143 | 0.0 | 0.0 | 0.00 | 0.00 | 0.00 | 100 | 1012.2 |
| 20260905102854 | 86 | 143 | 0.0 | 0.0 | 0.00 | 0.00 | 0.00 | 100 | 1012.0 |
| 20260905102611 | 86 | 143 | 0.0 | 0.0 | 0.00 | 0.00 | 0.00 | 100 | 1012.1 |
| 20260905102354 | 86 | 143 | 0.0 | 0.0 | 0.00 | 0.00 | 0.00 | 100 | 1012.1 |
| 20260905101854 | 86 | 143 | 0.0 | 0.0 | 0.00 | 0.00 | 0.00 | 100 | 1012.1 |
| 20260905101606 | 86 | 143 | 0.0 | 0.0 | 0.00 | 0.00 | 0.00 | 100 | 1012.0 |
| 20260905101354 | 86 | 143 | 0.0 | 0.0 | 0.00 | 0.00 | 0.00 | 100 | 1012.0 |
| 20260905100854 | 86 | 143 | 0.0 | 0.0 | 0.00 | 0.00 | 0.00 | 100 | 1012.0 |
| 20260905100647 | 86 | 143 | 0.0 | 0.0 | 0.00 | 0.00 | 0.00 | 100 | 1011.9 |
| 20260905100354 | 86 | 143 | 0.0 | 0.0 | 0.00 | 0.00 | 0.00 | 100 | 1011.9 |
| 20260905095854 | 86 | 143 | 0.0 | 0.0 | 0.00 | 0.00 | 0.00 | 100 | 1011.9 |
| 20260905095354 | 86 | 143 | 0.0 | 0.0 | 0.00 | 0.00 | 0.00 | 100 | 1011.9 |
| 20260905094854 | 86 | 143 | 0.0 | 0.0 | 0.00 | 0.00 | 0.00 | 100 | 1011.8 |
| 20260905094627 | 86 | 143 | 0.0 | 0.0 | 0.00 | 0.00 | 0.00 | 100 | 1011.7 |
| 20260905094354 | 86 | 143 | 0.0 | 0.0 | 0.00 | 0.00 | 0.00 | 100 | 1011.7 |
| 20260905093854 | 86 | 143 | 0.0 | 0.0 | 0.00 | 0.00 | 0.00 | 100 | 1011.7 |
| 20260905093629 | 86 | 143 | 0.0 | 0.0 | 0.00 | 0.00 | 0.00 | 100 | 1011.8 |
| 20260905093354 | 86 | 143 | 0.0 | 0.0 | 0.00 | 0.00 | 0.00 | 100 | 1011.8 |
| 20260905093050 | 86 | 143 | 0.0 | 0.0 | 0.00 | 0.00 | 0.00 | 100 | 1011.7 |
| 20260905092854 | 86 | 143 | 0.0 | 0.0 | 0.00 | 0.00 | 0.00 | 100 | 1011.7 |
| 20260905092354 | 86 | 143 | 0.0 | 0.0 | 0.00 | 0.00 | 0.00 | 100 | 1011.8 |
| 20260905091854 | 86 | 143 | 0.0 | 0.0 | 0.00 | 0.00 | 0.00 | 100 | 1011.8 |
| 20260905091544 | 85 | 143 | 0.0 | 0.0 | 0.00 | 0.00 | 0.00 | 100 | 1011.8 |
| 20260905091354 | 85 | 143 | 0.0 | 0.0 | 0.00 | 0.00 | 0.00 | 100 | 1011.8 |
| 20260905091151 | 86 | 143 | 0.0 | 0.0 | 0.00 | 0.00 | 0.00 | 100 | 1011.7 |
| 20260905090854 | 86 | 143 | 0.0 | 0.0 | 0.00 | 0.00 | 0.00 | 100 | 1011.7 |
| 20260905090622 | 86 | 143 | 0.0 | 0.0 | 0.00 | 0.00 | 0.00 | 100 | 1011.7 |
| 20260905090354 | 86 | 143 | 0.0 | 0.0 | 0.00 | 0.00 | 0.00 | 100 | 1011.7 |
| 20260905090027 | 86 | 143 | 0.0 | 0.0 | 0.00 | 0.00 | 0.00 | 100 | 1011.6 |
| 20260905085854 | 86 | 143 | 0.0 | 0.0 | 0.00 | 0.00 | 0.00 | 100 | 1011.6 |
| 20260905085549 | 86 | 143 | 0.0 | 0.0 | 0.00 | 0.00 | 0.00 | 100 | 1011.6 |
| 20260905085354 | 86 | 143 | 0.0 | 0.0 | 0.00 | 0.00 | 0.00 | 100 | 1011.6 |
| 20260905084854 | 86 | 143 | 0.0 | 0.0 | 0.00 | 0.00 | 0.00 | 100 | 1011.5 |
| 20260905084354 | 86 | 143 | 0.0 | 0.0 | 0.00 | 0.00 | 0.00 | 100 | 1011.6 |
| 20260905083854 | 86 | 143 | 0.0 | 0.0 | 0.00 | 0.00 | 0.00 | 100 | 1011.6 |
| 20260905083354 | 86 | 143 | 0.0 | 0.0 | 0.00 | 0.00 | 0.00 | 100 | 1011.6 |
| 20260905083050 | 86 | 143 | 0.0 | 0.0 | 0.00 | 0.00 | 0.00 | 100 | 1011.7 |
| 20260905082854 | 86 | 143 | 0.0 | 0.0 | 0.00 | 0.00 | 0.00 | 100 | 1011.7 |
| 20260905082711 | 85 | 143 | 0.0 | 0.0 | 0.00 | 0.00 | 0.00 | 100 | 1011.7 |
| 20260905082354 | 85 | 143 | 0.0 | 0.0 | 0.00 | 0.00 | 0.00 | 100 | 1011.7 |
| 20260905082032 | 86 | 143 | 0.0 | 0.0 | 0.00 | 0.00 | 0.00 | 100 | 1011.7 |
| 20260905081854 | 86 | 143 | 0.0 | 0.0 | 0.00 | 0.00 | 0.00 | 100 | 1011.7 |
| 20260905081354 | 86 | 143 | 0.0 | 0.0 | 0.00 | 0.00 | 0.00 | 100 | 1011.6 |
| 20260905080854 | 86 | 143 | 0.0 | 0.0 | 0.00 | 0.00 | 0.00 | 100 | 1011.7 |
| 20260905080528 | 86 | 143 | 0.0 | 0.0 | 0.00 | 0.00 | 0.00 | 100 | 1011.7 |
| 20260905080354 | 86 | 143 | 0.0 | 0.0 | 0.00 | 0.00 | 0.00 | 100 | 1011.7 |
| 20260905075854 | 86 | 143 | 0.0 | 0.0 | 0.00 | 0.00 | 0.00 | 100 | 1011.7 |
| 20260905075354 | 86 | 143 | 0.0 | 0.0 | 0.00 | 0.00 | 0.00 | 100 | 1011.7 |
| 20260905074854 | 86 | 143 | 0.0 | 0.0 | 0.00 | 0.00 | 0.00 | 100 | 1011.7 |
| 20260905074610 | 86 | 143 | 0.0 | 0.0 | 0.00 | 0.00 | 0.00 | 100 | 1011.7 |
| 20260905074354 | 86 | 143 | 0.0 | 0.0 | 0.00 | 0.00 | 0.00 | 100 | 1011.7 |
| 20260905073854 | 86 | 143 | 0.0 | 0.0 | 0.00 | 0.00 | 0.00 | 100 | 1011.7 |
| 20260905073354 | 86 | 143 | 0.0 | 0.0 | 0.00 | 0.00 | 0.00 | 100 | 1011.7 |
| 20260905072854 | 86 | 143 | 0.0 | 0.0 | 0.00 | 0.00 | 0.00 | 100 | 1011.7 |
| 20260905072651 | 86 | 143 | 0.0 | 0.0 | 0.00 | 0.00 | 0.00 | 100 | 1011.8 |
| 20260905072354 | 86 | 143 | 0.0 | 0.0 | 0.00 | 0.00 | 0.00 | 100 | 1011.8 |
| 20260905072050 | 86 | 143 | 0.0 | 0.0 | 0.00 | 0.00 | 0.00 | 100 | 1011.8 |
| 20260905071854 | 86 | 143 | 0.0 | 0.0 | 0.00 | 0.00 | 0.00 | 100 | 1011.8 |
| 20260905071354 | 86 | 143 | 0.0 | 0.0 | 0.00 | 0.00 | 0.00 | 100 | 1011.8 |
| 20260905070854 | 86 | 143 | 0.0 | 0.0 | 0.00 | 0.00 | 0.00 | 100 | 1011.8 |
| 20260905070619 | 86 | 143 | 0.0 | 0.0 | 0.00 | 0.00 | 0.00 | 100 | 1011.9 |
| 20260905070354 | 86 | 143 | 0.0 | 0.0 | 0.00 | 0.00 | 0.00 | 100 | 1011.9 |
| 20260905065854 | 86 | 143 | 0.0 | 0.0 | 0.00 | 0.00 | 0.00 | 100 | 1011.8 |
| 20260905065615 | 86 | 143 | 0.0 | 0.0 | 0.00 | 0.00 | 0.00 | 100 | 1011.8 |
| 20260905065354 | 86 | 143 | 0.0 | 0.0 | 0.00 | 0.00 | 0.00 | 100 | 1011.8 |
| 20260905065110 | 86 | 143 | 0.0 | 0.0 | 0.00 | 0.00 | 0.00 | 100 | 1011.8 |
| 20260905064854 | 86 | 143 | 0.0 | 0.0 | 0.00 | 0.00 | 0.00 | 100 | 1011.8 |
| 20260905064612 | 86 | 143 | 0.0 | 0.0 | 0.00 | 0.00 | 0.00 | 100 | 1011.8 |
| 20260905064354 | 86 | 143 | 0.0 | 0.0 | 0.00 | 0.00 | 0.00 | 100 | 1011.8 |
| 20260905063854 | 86 | 143 | 0.0 | 0.0 | 0.00 | 0.00 | 0.00 | 100 | 1011.9 |
| 20260905063627 | 86 | 143 | 0.0 | 0.0 | 0.00 | 0.00 | 0.00 | 100 | 1011.8 |
| 20260905063354 | 86 | 143 | 0.0 | 0.0 | 0.00 | 0.00 | 0.00 | 100 | 1011.8 |
| 20260905063102 | 86 | 143 | 0.0 | 0.0 | 0.00 | 0.00 | 0.00 | 100 | 1011.9 |
| 20260905062854 | 86 | 143 | 0.0 | 0.0 | 0.00 | 0.00 | 0.00 | 100 | 1011.9 |
| 20260905062620 | 86 | 143 | 0.0 | 0.0 | 0.00 | 0.00 | 0.00 | 100 | 1012.0 |
| 20260905062354 | 86 | 143 | 0.0 | 0.0 | 0.00 | 0.00 | 0.00 | 100 | 1012.0 |
| 20260905061854 | 86 | 143 | 0.0 | 0.0 | 0.00 | 0.00 | 0.00 | 100 | 1012.0 |
| 20260905061354 | 86 | 143 | 0.0 | 0.0 | 0.00 | 0.00 | 0.00 | 100 | 1012.0 |
| 20260905060854 | 86 | 143 | 0.0 | 0.0 | 0.00 | 0.00 | 0.00 | 100 | 1012.0 |
| 20260905060354 | 87 | 143 | 0.0 | 0.0 | 0.00 | 0.00 | 0.00 | 100 | 1012.1 |
| 20260905055854 | 86 | 143 | 0.0 | 0.0 | 0.00 | 0.00 | 0.00 | 100 | 1012.2 |
| 20260905055549 | 87 | 143 | 0.0 | 0.0 | 0.00 | 0.00 | 0.00 | 100 | 1012.2 |
| 20260905055354 | 87 | 143 | 0.0 | 0.0 | 0.00 | 0.00 | 0.00 | 100 | 1012.2 |
| 20260905054854 | 87 | 143 | 0.0 | 0.0 | 0.00 | 0.00 | 0.00 | 100 | 1012.2 |
| 20260905054626 | 87 | 143 | 0.0 | 0.0 | 0.00 | 0.00 | 0.00 | 100 | 1012.3 |
| 20260905054354 | 87 | 143 | 0.0 | 0.0 | 0.00 | 0.00 | 0.00 | 100 | 1012.3 |
| 20260905053854 | 87 | 143 | 0.0 | 2.0 | 0.00 | 0.00 | 0.00 | 100 | 1012.4 |
| 20260905053622 | 87 | 305 | 0.0 | 0.0 | 0.00 | 0.00 | 0.00 | 100 | 1012.4 |
| 20260905053354 | 87 | 305 | 0.0 | 0.0 | 0.00 | 0.00 | 0.00 | 100 | 1012.4 |
| 20260905053121 | 87 | 305 | 0.0 | 0.0 | 0.00 | 0.00 | 0.00 | 100 | 1012.4 |
| 20260905052854 | 87 | 305 | 0.0 | 0.0 | 0.00 | 0.00 | 0.00 | 100 | 1012.4 |
| 20260905052626 | 87 | 305 | 0.0 | 0.0 | 0.00 | 0.00 | 0.00 | 100 | 1012.4 |
| 20260905052354 | 87 | 305 | 0.0 | 0.0 | 0.00 | 0.00 | 0.00 | 100 | 1012.4 |
| 20260905052113 | 87 | 305 | 0.0 | 0.0 | 0.00 | 0.00 | 0.00 | 100 | 1012.4 |
| 20260905051854 | 87 | 305 | 0.0 | 0.0 | 0.00 | 0.00 | 0.00 | 100 | 1012.4 |
| 20260905051616 | 88 | 305 | 0.0 | 0.0 | 0.00 | 0.00 | 0.00 | 100 | 1012.4 |
| 20260905051354 | 88 | 305 | 0.0 | 0.0 | 0.00 | 0.00 | 0.00 | 100 | 1012.4 |
| 20260905051111 | 88 | 305 | 0.0 | 0.0 | 0.00 | 0.00 | 0.00 | 100 | 1012.6 |
| 20260905050854 | 88 | 305 | 0.0 | 0.0 | 0.00 | 0.00 | 0.00 | 100 | 1012.6 |
| 20260905050354 | 88 | 305 | 0.0 | 0.0 | 0.00 | 0.00 | 0.00 | 100 | 1012.7 |
| 20260905045854 | 88 | 305 | 0.0 | 0.0 | 0.00 | 0.00 | 0.00 | 100 | 1012.7 |
| 20260905045354 | 88 | 305 | 0.0 | 0.0 | 0.00 | 0.00 | 0.00 | 100 | 1012.8 |
| 20260905045128 | 88 | 305 | 0.0 | 0.0 | 0.00 | 0.00 | 0.00 | 100 | 1012.8 |
| 20260905044854 | 88 | 305 | 0.0 | 0.0 | 0.00 | 0.00 | 0.00 | 100 | 1012.8 |
| 20260905044643 | 88 | 305 | 0.0 | 0.0 | 0.00 | 0.00 | 0.00 | 100 | 1012.9 |
| 20260905044354 | 88 | 305 | 0.0 | 0.0 | 0.00 | 0.00 | 0.00 | 100 | 1012.9 |
| 20260905043854 | 88 | 305 | 0.0 | 0.0 | 0.00 | 0.00 | 0.00 | 100 | 1012.8 |
| 20260905043354 | 88 | 305 | 0.0 | 0.0 | 0.00 | 0.00 | 0.00 | 100 | 1012.8 |
| 20260905043017 | 88 | 305 | 0.0 | 0.0 | 0.00 | 0.00 | 0.00 | 100 | 1012.8 |
| 20260905042854 | 88 | 305 | 0.0 | 0.0 | 0.00 | 0.00 | 0.00 | 100 | 1012.8 |
| 20260905042642 | 88 | 305 | 0.0 | 0.0 | 0.00 | 0.00 | 0.00 | 100 | 1012.9 |
| 20260905042354 | 88 | 305 | 0.0 | 0.0 | 0.00 | 0.00 | 0.00 | 100 | 1012.9 |
| 20260905042112 | 88 | 305 | 0.0 | 0.0 | 0.00 | 0.00 | 0.00 | 100 | 1012.9 |
| 20260905041854 | 88 | 305 | 0.0 | 0.0 | 0.00 | 0.00 | 0.00 | 100 | 1012.9 |
| 20260905041652 | 89 | 305 | 0.0 | 0.0 | 0.00 | 0.00 | 0.00 | 100 | 1012.9 |
| 20260905041354 | 89 | 305 | 0.0 | 0.0 | 0.00 | 0.00 | 0.00 | 100 | 1012.9 |
| 20260905040854 | 89 | 305 | 0.0 | 0.0 | 0.00 | 0.00 | 0.00 | 100 | 1012.9 |
| 20260905040652 | 89 | 305 | 0.0 | 0.0 | 0.00 | 0.00 | 0.00 | 100 | 1012.9 |
| 20260905040354 | 89 | 305 | 0.0 | 0.0 | 0.00 | 0.00 | 0.00 | 100 | 1012.9 |
| 20260905035954 | 89 | 305 | 0.0 | 0.0 | 0.00 | 0.00 | 0.00 | 100 | 1013.1 |
| 20260905035855 | 89 | 305 | 0.0 | 0.0 | 0.00 | 0.00 | 0.00 | 100 | 1013.0 |
| 20260905035354 | 89 | 305 | 0.0 | 0.0 | 0.00 | 0.00 | 0.00 | 100 | 1013.1 |
| 20260905034854 | 89 | 305 | 0.0 | 0.0 | 0.00 | 0.00 | 0.00 | 100 | 1013.0 |
| 20260905034708 | 89 | 305 | 0.0 | 0.0 | 0.00 | 0.00 | 0.00 | 100 | 1012.9 |
| 20260905034354 | 89 | 305 | 0.0 | 0.0 | 0.00 | 0.00 | 0.00 | 100 | 1012.9 |
| 20260905033854 | 89 | 305 | 0.0 | 0.0 | 0.00 | 0.00 | 0.00 | 100 | 1012.9 |
| 20260905033354 | 89 | 305 | 0.0 | 0.0 | 0.00 | 0.00 | 0.00 | 100 | 1012.9 |
| 20260905033113 | 89 | 305 | 0.0 | 0.0 | 0.00 | 0.00 | 0.00 | 100 | 1012.9 |
| 20260905032854 | 89 | 305 | 0.0 | 0.0 | 0.00 | 0.00 | 0.00 | 100 | 1012.9 |
| 20260905032657 | 89 | 305 | 0.0 | 0.0 | 0.00 | 0.00 | 0.00 | 100 | 1012.9 |
| 20260905032354 | 89 | 305 | 0.0 | 0.0 | 0.00 | 0.00 | 0.00 | 100 | 1012.9 |
| 20260905031854 | 89 | 305 | 0.0 | 0.0 | 0.00 | 0.00 | 0.00 | 100 | 1013.0 |
| 20260905031354 | 89 | 305 | 0.0 | 0.0 | 0.00 | 0.00 | 0.00 | 100 | 1013.1 |
| 20260905031218 | 89 | 305 | 0.0 | 0.0 | 0.00 | 0.00 | 0.00 | 100 | 1013.2 |
| 20260905030854 | 89 | 305 | 0.0 | 0.0 | 0.00 | 0.00 | 0.00 | 100 | 1013.2 |
| 20260905030354 | 90 | 305 | 0.0 | 0.0 | 0.00 | 0.00 | 0.00 | 100 | 1013.2 |
| 20260905025854 | 90 | 305 | 0.0 | 0.0 | 0.00 | 0.00 | 0.00 | 100 | 1013.2 |
| 20260905025355 | 90 | 305 | 0.0 | 0.0 | 0.00 | 0.00 | 0.00 | 100 | 1013.1 |
| 20260905025142 | 90 | 305 | 0.0 | 0.0 | 0.00 | 0.00 | 0.00 | 100 | 1013.1 |
| 20260905024854 | 90 | 305 | 0.0 | 0.0 | 0.00 | 0.00 | 0.00 | 100 | 1013.1 |
| 20260905024642 | 90 | 305 | 0.0 | 0.0 | 0.00 | 0.00 | 0.00 | 100 | 1013.1 |
| 20260905024354 | 90 | 305 | 0.0 | 0.0 | 0.00 | 0.00 | 0.00 | 100 | 1013.1 |
| 20260905023854 | 90 | 305 | 0.0 | 0.0 | 0.00 | 0.00 | 0.00 | 100 | 1013.0 |
| 20260905023632 | 90 | 305 | 0.0 | 0.0 | 0.00 | 0.00 | 0.00 | 100 | 1012.9 |
| 20260905023354 | 90 | 305 | 0.0 | 0.0 | 0.00 | 0.00 | 0.00 | 100 | 1012.9 |
| 20260905022854 | 90 | 305 | 0.0 | 0.0 | 0.00 | 0.00 | 0.00 | 100 | 1013.0 |
| 20260905022713 | 90 | 305 | 0.0 | 0.0 | 0.00 | 0.00 | 0.00 | 100 | 1013.0 |
| 20260905022354 | 90 | 305 | 0.0 | 0.0 | 0.00 | 0.00 | 0.00 | 100 | 1013.0 |
| 20260905021854 | 90 | 305 | 0.0 | 0.0 | 0.00 | 0.00 | 0.00 | 100 | 1013.0 |
| 20260905021354 | 90 | 305 | 0.0 | 0.0 | 0.00 | 0.00 | 0.00 | 100 | 1012.9 |
| 20260905021202 | 90 | 305 | 0.0 | 0.0 | 0.00 | 0.00 | 0.00 | 100 | 1013.0 |
| 20260905020854 | 90 | 305 | 0.0 | 0.0 | 0.00 | 0.00 | 0.00 | 100 | 1013.0 |
| 20260905020627 | 90 | 305 | 0.0 | 0.0 | 0.00 | 0.00 | 0.00 | 100 | 1013.0 |
| 20260905020354 | 90 | 305 | 0.0 | 0.0 | 0.00 | 0.00 | 0.00 | 100 | 1013.0 |
| 20260905020124 | 90 | 305 | 0.0 | 0.0 | 0.00 | 0.00 | 0.00 | 100 | 1013.1 |
| 20260905015854 | 90 | 305 | 0.0 | 0.0 | 0.00 | 0.00 | 0.00 | 100 | 1013.1 |
| 20260905015354 | 90 | 305 | 0.0 | 0.0 | 0.00 | 0.00 | 0.00 | 100 | 1011.5 |
| 20260905014855 | 90 | 305 | 0.0 | 0.0 | 0.00 | 0.00 | 0.00 | 100 | 1011.4 |
| 20260905014354 | 90 | 305 | 0.0 | 0.0 | 0.00 | 0.00 | 0.00 | 100 | 1011.4 |
| 20260905013854 | 90 | 305 | 0.0 | 0.0 | 0.00 | 0.00 | 0.00 | 100 | 1011.3 |
| 20260905013640 | 90 | 305 | 0.0 | 0.0 | 0.00 | 0.00 | 0.00 | 100 | 1011.3 |
| 20260905013354 | 90 | 305 | 0.0 | 0.0 | 0.00 | 0.00 | 0.00 | 100 | 1011.3 |
| 20260905012854 | 90 | 305 | 0.0 | 0.0 | 0.00 | 0.00 | 0.00 | 100 | 1011.1 |
| 20260905012713 | 90 | 305 | 0.0 | 0.0 | 0.00 | 0.00 | 0.00 | 100 | 1010.9 |
| 20260905012355 | 90 | 305 | 0.0 | 0.0 | 0.00 | 0.00 | 0.00 | 100 | 1010.9 |
| 20260905011855 | 90 | 305 | 0.0 | 0.0 | 0.00 | 0.00 | 0.00 | 100 | 1011.0 |
| 20260905011613 | 90 | 305 | 0.0 | 0.0 | 0.00 | 0.00 | 0.00 | 100 | 1011.0 |
| 20260905011355 | 90 | 305 | 0.0 | 0.0 | 0.00 | 0.00 | 0.00 | 100 | 1011.0 |
| 20260905010855 | 90 | 305 | 0.0 | 1.0 | 0.00 | 0.00 | 0.00 | 100 | 1011.0 |
| 20260905010355 | 90 | 49 | 0.0 | 0.0 | 0.00 | 0.00 | 0.00 | 100 | 1010.9 |
| 20260905005855 | 90 | 49 | 0.0 | 2.0 | 0.00 | 0.00 | 0.00 | 100 | 1010.9 |
| 20260905005529 | 90 | 316 | 0.0 | 0.0 | 0.00 | 0.00 | 0.00 | 100 | 1010.9 |
| 20260905005355 | 90 | 316 | 0.0 | 0.0 | 0.00 | 0.00 | 0.00 | 100 | 1010.9 |
| 20260905005143 | 90 | 316 | 0.0 | 0.0 | 0.00 | 0.00 | 0.00 | 100 | 1010.7 |
| 20260905004855 | 90 | 316 | 0.0 | 0.0 | 0.00 | 0.00 | 0.00 | 100 | 1010.7 |
| 20260905004355 | 90 | 316 | 0.0 | 0.0 | 0.00 | 0.00 | 0.00 | 100 | 1010.7 |
| 20260905004151 | 90 | 316 | 0.0 | 0.0 | 0.00 | 0.00 | 0.00 | 100 | 1010.7 |
| 20260905003855 | 90 | 316 | 0.0 | 0.0 | 0.00 | 0.00 | 0.00 | 100 | 1010.7 |
| 20260905003355 | 91 | 316 | 0.0 | 0.0 | 0.00 | 0.00 | 0.00 | 100 | 1010.7 |
| 20260905002855 | 91 | 316 | 0.0 | 0.0 | 0.00 | 0.00 | 0.00 | 100 | 1010.8 |
| 20260905002355 | 91 | 316 | 0.0 | 0.0 | 0.00 | 0.00 | 0.00 | 100 | 1010.9 |
| 20260905001855 | 91 | 316 | 0.0 | 0.0 | 0.00 | 0.00 | 0.00 | 100 | 1010.9 |
| 20260905001355 | 91 | 316 | 0.0 | 0.0 | 0.00 | 0.00 | 0.00 | 100 | 1010.9 |
| 20260905000855 | 91 | 316 | 0.0 | 0.0 | 0.00 | 0.00 | 0.00 | 100 | 1011.1 |
| 20260905000355 | 91 | 316 | 0.0 | 0.0 | 0.00 | 0.00 | 0.00 | 100 | 1010.9 |
| 20260904235855 | 92 | 316 | 0.0 | 0.0 | 0.00 | 0.00 | 0.00 | 100 | 1011.1 |
| 20260904235355 | 92 | 316 | 0.0 | 0.0 | 0.00 | 0.00 | 0.00 | 100 | 1011.2 |
| 20260904235121 | 92 | 316 | 0.0 | 0.0 | 0.00 | 0.00 | 0.00 | 100 | 1011.5 |
| 20260904234855 | 92 | 316 | 0.0 | 0.0 | 0.00 | 0.00 | 0.00 | 100 | 1011.5 |
| 20260904234355 | 92 | 316 | 0.0 | 0.0 | 0.00 | 0.00 | 0.00 | 100 | 1011.5 |
| 20260904234140 | 92 | 316 | 0.0 | 5.0 | 0.00 | 0.00 | 0.00 | 100 | 1011.4 |
| 20260904233855 | 92 | 316 | 0.0 | 5.0 | 0.00 | 0.00 | 0.00 | 100 | 1011.4 |
| 20260904233355 | 92 | 330 | 3.0 | 7.0 | 0.00 | 0.00 | 0.00 | 100 | 1011.2 |
| 20260904233108 | 92 | 33 | 0.0 | 4.0 | 0.00 | 0.00 | 0.00 | 100 | 1011.2 |
| 20260904232855 | 92 | 33 | 0.0 | 4.0 | 0.00 | 0.00 | 0.00 | 100 | 1011.2 |
| 20260904232355 | 92 | 309 | 0.0 | 4.0 | 0.00 | 0.00 | 0.00 | 100 | 1010.9 |
| 20260904231855 | 92 | 334 | 0.0 | 4.0 | 0.00 | 0.00 | 0.00 | 100 | 1010.7 |
| 20260904231355 | 92 | 284 | 0.0 | 2.0 | 0.00 | 0.00 | 0.00 | 100 | 1010.7 |
| 20260904231306 | 93 | 270 | 0.0 | 5.0 | 0.00 | 0.00 | 0.00 | 100 | 1010.6 |
| 20260904230855 | 93 | 270 | 0.0 | 5.0 | 0.00 | 0.00 | 0.00 | 100 | 1010.6 |
| 20260904230355 | 93 | 240 | 0.0 | 4.0 | 0.00 | 0.00 | 0.00 | 100 | 1010.6 |
| 20260904225855 | 93 | 351 | 0.0 | 5.0 | 0.00 | 0.00 | 0.00 | 100 | 1010.8 |
| 20260904225800 | 85 | 106 | 0.0 | 4.0 | 0.00 | 0.00 | 0.00 | 100 | 1011.4 |
| 20260904225355 | 93 | 350 | 4.0 | 5.0 | 0.00 | 0.00 | 0.00 | 100 | 1010.7 |
| 20260904224855 | 93 | 331 | 0.0 | 7.0 | 0.00 | 0.00 | 0.00 | 100 | 1010.6 |
| 20260904224355 | 93 | 5 | 5.0 | 6.0 | 0.00 | 0.00 | 0.00 | 100 | 1010.6 |
| 20260904223855 | 93 | 14 | 3.0 | 4.0 | 0.00 | 0.00 | 0.00 | 100 | 1010.4 |
| 20260904223355 | 93 | 355 | 0.0 | 4.0 | 0.00 | 0.00 | 0.00 | 100 | 1010.4 |
| 20260904223300 | 93 | 112 | 0.0 | 0.0 | 0.00 | 0.00 | 0.00 | 100 | 1010.3 |
| 20260904223220 | 93 | 112 | 0.0 | 0.0 | 0.00 | 0.00 | 0.00 | 100 | 1010.3 |
| 20260904222855 | 93 | 112 | 0.0 | 0.0 | 0.00 | 0.00 | 0.00 | 100 | 1010.3 |
| 20260904222355 | 93 | 112 | 0.0 | 3.0 | 0.00 | 0.00 | 0.00 | 100 | 1010.3 |
| 20260904222257 | 93 | 178 | 0.0 | 4.0 | 0.00 | 0.00 | 0.00 | 100 | 1010.3 |
| 20260904221855 | 93 | 178 | 0.0 | 4.0 | 0.00 | 0.00 | 0.00 | 100 | 1010.3 |
| 20260904221355 | 94 | 323 | 3.0 | 4.0 | 0.00 | 0.00 | 0.00 | 100 | 1010.2 |
| 20260904220855 | 94 | 305 | 0.0 | 6.0 | 0.00 | 0.00 | 0.00 | 100 | 1010.3 |
| 20260904220355 | 94 | 227 | 2.0 | 5.0 | 0.00 | 0.00 | 0.00 | 100 | 1010.2 |
| 20260904215855 | 94 | 320 | 0.0 | 4.0 | 0.00 | 0.00 | 0.00 | 100 | 1010.4 |
| 20260904215355 | 94 | 247 | 0.0 | 5.0 | 0.00 | 0.00 | 0.00 | 100 | 1010.3 |
| 20260904214855 | 94 | 358 | 3.0 | 5.0 | 0.00 | 0.00 | 0.00 | 100 | 1010.2 |
| 20260904214355 | 94 | 47 | 1.0 | 9.0 | 0.00 | 0.00 | 0.00 | 100 | 1010.3 |
| 20260904213855 | 95 | 22 | 2.0 | 5.0 | 0.00 | 0.00 | 0.00 | 100 | 1010.4 |
| 20260904213355 | 95 | 7 | 4.0 | 6.0 | 0.00 | 0.00 | 0.00 | 100 | 1010.7 |
| 20260904212855 | 95 | 351 | 0.0 | 7.0 | 0.00 | 0.00 | 0.00 | 100 | 1010.5 |
| 20260904212355 | 95 | 279 | 0.0 | 6.0 | 0.00 | 0.00 | 0.00 | 100 | 1011.8 |
| 20260904211855 | 94 | 251 | 2.0 | 5.0 | 0.00 | 0.00 | 0.00 | 100 | 1011.8 |
| 20260904211657 | 94 | 210 | 0.0 | 7.0 | 0.00 | 0.00 | 0.00 | 100 | 1011.7 |
| 20260904211355 | 94 | 210 | 0.0 | 7.0 | 0.00 | 0.00 | 0.00 | 100 | 1011.7 |
| 20260904211144 | 94 | 317 | 0.0 | 6.0 | 0.00 | 0.00 | 0.00 | 100 | 1011.7 |
| 20260904210855 | 94 | 317 | 0.0 | 6.0 | 0.00 | 0.00 | 0.00 | 100 | 1011.7 |
| 20260904210355 | 94 | 15 | 1.0 | 7.0 | 0.00 | 0.00 | 0.00 | 100 | 1011.4 |
| 20260904210117 | 94 | 285 | 1.0 | 8.0 | 0.00 | 0.00 | 0.00 | 100 | 1011.6 |
| 20260904205855 | 94 | 285 | 1.0 | 8.0 | 0.00 | 0.00 | 0.00 | 100 | 1011.6 |
| 20260904205355 | 94 | 172 | 0.0 | 7.0 | 0.00 | 0.00 | 0.00 | 100 | 1011.6 |
| 20260904204855 | 94 | 0 | 2.0 | 7.0 | 0.00 | 0.00 | 0.00 | 100 | 1011.7 |
| 20260904204355 | 94 | 306 | 0.0 | 2.0 | 0.00 | 0.00 | 0.00 | 100 | 1011.7 |
| 20260904203855 | 95 | 205 | 2.0 | 5.0 | 0.00 | 0.00 | 0.00 | 100 | 1011.6 |
| 20260904203355 | 95 | 239 | 2.0 | 7.0 | 0.00 | 0.00 | 0.00 | 100 | 1011.6 |
| 20260904202856 | 95 | 286 | 4.0 | 8.0 | 0.00 | 0.00 | 0.00 | 100 | 1011.5 |
| 20260904202355 | 96 | 125 | 0.0 | 8.0 | 0.00 | 0.00 | 0.00 | 100 | 1011.4 |
| 20260904202127 | 96 | 298 | 4.0 | 5.0 | 0.00 | 0.00 | 0.00 | 100 | 1011.5 |
| 20260904201855 | 96 | 298 | 4.0 | 5.0 | 0.00 | 0.00 | 0.00 | 100 | 1011.5 |
| 20260904201601 | 97 | 333 | 0.0 | 9.0 | 0.00 | 0.00 | 0.00 | 100 | 1011.2 |
| 20260904201355 | 97 | 333 | 0.0 | 9.0 | 0.00 | 0.00 | 0.00 | 100 | 1011.2 |
| 20260904200855 | 97 | 198 | 5.0 | 6.0 | 0.00 | 0.00 | 0.00 | 100 | 1010.6 |
| 20260904200355 | 97 | 253 | 1.0 | 4.0 | 0.00 | 0.00 | 0.00 | 100 | 1010.8 |
| 20260904200253 | 96 | 327 | 4.0 | 7.0 | 0.00 | 0.00 | 0.00 | 100 | 1012.0 |
| 20260904200215 | 96 | 327 | 4.0 | 7.0 | 0.00 | 0.00 | 0.00 | 100 | 1012.0 |
| 20260904195855 | 96 | 327 | 4.0 | 7.0 | 0.00 | 0.00 | 0.00 | 100 | 1012.0 |
| 20260904195355 | 96 | 289 | 6.0 | 6.0 | 0.00 | 0.00 | 0.00 | 100 | 1010.7 |
| 20260904194855 | 96 | 307 | 3.0 | 7.0 | 0.00 | 0.00 | 0.00 | 100 | 1011.2 |
| 20260904194355 | 96 | 223 | 0.0 | 5.0 | 0.00 | 0.00 | 0.00 | 100 | 1011.2 |
| 20260904193855 | 96 | 225 | 1.0 | 6.0 | 0.00 | 0.00 | 0.00 | 100 | 1011.9 |
| 20260904193355 | 96 | 215 | 1.0 | 7.0 | 0.00 | 0.00 | 0.00 | 100 | 1012.2 |
| 20260904192855 | 96 | 192 | 1.0 | 5.0 | 0.00 | 0.00 | 0.00 | 100 | 1012.2 |
| 20260904192355 | 95 | 199 | 0.0 | 10.0 | 0.00 | 0.00 | 0.00 | 100 | 1012.1 |
| 20260904191855 | 95 | 282 | 1.0 | 9.0 | 0.00 | 0.00 | 0.00 | 100 | 1012.2 |
| 20260904191355 | 95 | 253 | 4.0 | 9.0 | 0.00 | 0.00 | 0.00 | 100 | 1012.4 |
| 20260904190855 | 94 | 288 | 3.0 | 6.0 | 0.00 | 0.00 | 0.00 | 100 | 1012.5 |
| 20260904190355 | 94 | 272 | 3.0 | 7.0 | 0.00 | 0.00 | 0.00 | 100 | 1012.5 |
| 20260904185855 | 94 | 291 | 2.0 | 8.0 | 0.00 | 0.00 | 0.00 | 100 | 1012.5 |
| 20260904185355 | 95 | 299 | 4.0 | 7.0 | 0.00 | 0.00 | 0.00 | 100 | 1012.5 |
| 20260904185117 | 96 | 279 | 2.0 | 10.0 | 0.00 | 0.00 | 0.00 | 100 | 1012.6 |
| 20260904184855 | 96 | 279 | 2.0 | 10.0 | 0.00 | 0.00 | 0.00 | 100 | 1012.6 |
| 20260904184355 | 96 | 77 | 2.0 | 8.0 | 0.00 | 0.00 | 0.00 | 100 | 1012.6 |
| 20260904183855 | 96 | 352 | 0.0 | 9.0 | 0.00 | 0.00 | 0.00 | 100 | 1012.4 |
| 20260904183355 | 96 | 307 | 8.0 | 8.0 | 0.00 | 0.00 | 0.00 | 100 | 1012.7 |
| 20260904183049 | 97 | 309 | 3.0 | 8.0 | 0.00 | 0.00 | 0.00 | 100 | 1012.8 |
| 20260904182855 | 97 | 309 | 3.0 | 8.0 | 0.00 | 0.00 | 0.00 | 100 | 1012.8 |
| 20260904182355 | 97 | 240 | 1.0 | 8.0 | 0.00 | 0.00 | 0.00 | 100 | 1013.0 |
| 20260904182124 | 97 | 1 | 0.0 | 8.0 | 0.00 | 0.00 | 0.00 | 100 | 1013.1 |
| 20260904181855 | 97 | 1 | 0.0 | 8.0 | 0.00 | 0.00 | 0.00 | 100 | 1013.1 |
| 20260904181655 | 97 | 289 | 1.0 | 4.0 | 0.00 | 0.00 | 0.00 | 100 | 1013.0 |
| 20260904181355 | 97 | 289 | 1.0 | 4.0 | 0.00 | 0.00 | 0.00 | 100 | 1013.0 |
| 20260904181154 | 96 | 299 | 1.0 | 6.0 | 0.00 | 0.00 | 0.00 | 100 | 1013.2 |
| 20260904180855 | 96 | 299 | 1.0 | 6.0 | 0.00 | 0.00 | 0.00 | 100 | 1013.2 |
| 20260904180718 | 96 | 354 | 2.0 | 9.0 | 0.00 | 0.00 | 0.00 | 100 | 1013.3 |
| 20260904180355 | 96 | 354 | 2.0 | 9.0 | 0.00 | 0.00 | 0.00 | 100 | 1013.3 |
| 20260904180140 | 96 | 274 | 4.0 | 9.0 | 0.00 | 0.00 | 0.00 | 100 | 1013.3 |
| 20260904175855 | 96 | 274 | 4.0 | 9.0 | 0.00 | 0.00 | 0.00 | 100 | 1013.3 |
| 20260904175652 | 97 | 261 | 1.0 | 7.0 | 0.00 | 0.00 | 0.00 | 100 | 1013.3 |
| 20260904175355 | 97 | 261 | 1.0 | 7.0 | 0.00 | 0.00 | 0.00 | 100 | 1013.3 |
| 20260904174855 | 96 | 14 | 0.0 | 4.0 | 0.00 | 0.00 | 0.00 | 100 | 1013.3 |
| 20260904174355 | 96 | 320 | 0.0 | 6.0 | 0.00 | 0.00 | 0.00 | 100 | 1013.3 |
| 20260904173855 | 96 | 28 | 1.0 | 4.0 | 0.00 | 0.00 | 0.00 | 100 | 1013.3 |
| 20260904173355 | 96 | 267 | 1.0 | 9.0 | 0.00 | 0.00 | 0.00 | 100 | 1013.4 |
| 20260904173226 | 96 | 340 | 2.0 | 6.0 | 0.00 | 0.00 | 0.00 | 100 | 1013.3 |
| 20260904172855 | 96 | 340 | 2.0 | 6.0 | 0.00 | 0.00 | 0.00 | 100 | 1013.3 |
| 20260904172721 | 96 | 104 | 1.0 | 9.0 | 0.00 | 0.00 | 0.00 | 100 | 1013.4 |
| 20260904172355 | 96 | 104 | 1.0 | 9.0 | 0.00 | 0.00 | 0.00 | 100 | 1013.4 |
| 20260904171855 | 96 | 310 | 3.0 | 6.0 | 0.00 | 0.00 | 0.00 | 100 | 1013.5 |
| 20260904171355 | 96 | 268 | 0.0 | 10.0 | 0.00 | 0.00 | 0.00 | 100 | 1013.6 |
| 20260904170855 | 96 | 268 | 2.0 | 7.0 | 0.00 | 0.00 | 0.00 | 100 | 1013.6 |
| 20260904170656 | 96 | 125 | 1.0 | 4.0 | 0.00 | 0.00 | 0.00 | 100 | 1013.7 |
| 20260904170355 | 96 | 125 | 1.0 | 4.0 | 0.00 | 0.00 | 0.00 | 100 | 1013.7 |
| 20260904165855 | 96 | 29 | 1.0 | 6.0 | 0.00 | 0.00 | 0.00 | 100 | 1013.8 |
| 20260904165718 | 96 | 63 | 0.0 | 6.0 | 0.00 | 0.00 | 0.00 | 100 | 1013.7 |
| 20260904165355 | 96 | 63 | 0.0 | 6.0 | 0.00 | 0.00 | 0.00 | 100 | 1013.7 |
| 20260904164855 | 96 | 230 | 0.0 | 6.0 | 0.00 | 0.00 | 0.00 | 100 | 1013.7 |
| 20260904164355 | 96 | 323 | 0.0 | 6.0 | 0.00 | 0.00 | 0.00 | 100 | 1013.7 |
| 20260904164125 | 96 | 170 | 2.0 | 6.0 | 0.00 | 0.00 | 0.00 | 100 | 1013.8 |
| 20260904163855 | 96 | 170 | 2.0 | 6.0 | 0.00 | 0.00 | 0.00 | 100 | 1013.8 |
| 20260904163804 | 96 | 298 | 0.0 | 9.0 | 0.00 | 0.00 | 0.00 | 100 | 1013.9 |
| 20260904163355 | 96 | 298 | 0.0 | 9.0 | 0.00 | 0.00 | 0.00 | 100 | 1013.9 |
| 20260904162855 | 95 | 261 | 0.0 | 6.0 | 0.00 | 0.00 | 0.00 | 100 | 1013.9 |
| 20260904162355 | 95 | 351 | 3.0 | 6.0 | 0.00 | 0.00 | 0.00 | 100 | 1013.9 |
| 20260904161855 | 95 | 271 | 2.0 | 6.0 | 0.00 | 0.00 | 0.00 | 100 | 1013.9 |
| 20260904161644 | 94 | 247 | 0.0 | 7.0 | 0.00 | 0.00 | 0.00 | 100 | 1014.0 |
| 20260904161355 | 94 | 247 | 0.0 | 7.0 | 0.00 | 0.00 | 0.00 | 100 | 1014.0 |
| 20260904160855 | 94 | 232 | 1.0 | 7.0 | 0.00 | 0.00 | 0.00 | 100 | 1013.9 |
| 20260904160355 | 93 | 189 | 3.0 | 3.0 | 0.00 | 0.00 | 0.00 | 100 | 1014.0 |
| 20260904155855 | 91 | 240 | 0.0 | 0.0 | 0.00 | 0.00 | 0.00 | 100 | 1014.0 |
| 20260904155355 | 91 | 240 | 0.0 | 5.0 | 0.00 | 0.00 | 0.00 | 100 | 1014.2 |
| 20260904154855 | 92 | 222 | 0.0 | 3.0 | 0.00 | 0.00 | 0.00 | 100 | 1014.2 |
| 20260904154355 | 92 | 191 | 0.0 | 7.0 | 0.00 | 0.00 | 0.00 | 100 | 1013.9 |
| 20260904153855 | 93 | 198 | 2.0 | 10.0 | 0.00 | 0.00 | 0.00 | 100 | 1014.0 |
| 20260904153355 | 94 | 257 | 2.0 | 6.0 | 0.00 | 0.00 | 0.00 | 100 | 1014.1 |
| 20260904152855 | 94 | 194 | 2.0 | 6.0 | 0.00 | 0.00 | 0.00 | 100 | 1013.9 |
| 20260904152355 | 94 | 227 | 0.0 | 8.0 | 0.00 | 0.00 | 0.00 | 100 | 1013.9 |
| 20260904151855 | 94 | 285 | 3.0 | 8.0 | 0.00 | 0.00 | 0.00 | 100 | 1013.8 |
| 20260904151655 | 94 | 164 | 4.0 | 9.0 | 0.00 | 0.00 | 0.00 | 100 | 1013.7 |
| 20260904151355 | 94 | 164 | 4.0 | 9.0 | 0.00 | 0.00 | 0.00 | 100 | 1013.7 |
| 20260904150855 | 94 | 237 | 2.0 | 8.0 | 0.00 | 0.00 | 0.00 | 100 | 1013.7 |
| 20260904150355 | 94 | 217 | 1.0 | 8.0 | 0.00 | 0.00 | 0.00 | 100 | 1013.6 |
| 20260904145855 | 94 | 195 | 2.0 | 8.0 | 0.00 | 0.00 | 0.00 | 100 | 1013.6 |
| 20260904145355 | 94 | 59 | 0.0 | 6.0 | 0.00 | 0.00 | 0.00 | 100 | 1013.6 |
| 20260904144855 | 93 | 151 | 0.0 | 9.0 | 0.00 | 0.00 | 0.00 | 100 | 1013.6 |
| 20260904144642 | 93 | 187 | 0.0 | 7.0 | 0.00 | 0.00 | 0.00 | 100 | 1013.7 |
| 20260904144355 | 93 | 187 | 0.0 | 7.0 | 0.00 | 0.00 | 0.00 | 100 | 1013.7 |
| 20260904143855 | 93 | 189 | 0.0 | 7.0 | 0.00 | 0.00 | 0.00 | 100 | 1013.7 |
| 20260904143355 | 93 | 234 | 4.0 | 5.0 | 0.00 | 0.00 | 0.00 | 100 | 1013.6 |
| 20260904142855 | 92 | 196 | 4.0 | 6.0 | 0.00 | 0.00 | 0.00 | 100 | 1013.7 |
| 20260904142355 | 92 | 312 | 1.0 | 3.0 | 0.00 | 0.00 | 0.00 | 100 | 1013.6 |
| 20260904141856 | 92 | 180 | 0.0 | 6.0 | 0.00 | 0.00 | 0.00 | 100 | 1013.6 |
| 20260904141355 | 92 | 219 | 0.0 | 5.0 | 0.00 | 0.00 | 0.00 | 100 | 1013.5 |
| 20260904140855 | 91 | 194 | 0.0 | 6.0 | 0.00 | 0.00 | 0.00 | 100 | 1013.6 |
| 20260904140356 | 91 | 270 | 2.0 | 4.0 | 0.00 | 0.00 | 0.00 | 100 | 1013.6 |
| 20260904140120 | 91 | 195 | 0.0 | 4.0 | 0.00 | 0.00 | 0.00 | 100 | 1013.6 |
| 20260904135856 | 91 | 195 | 0.0 | 4.0 | 0.00 | 0.00 | 0.00 | 100 | 1013.6 |